(52119) = 1998 VC26 = 4105 P-L

Discovered at Palomar on 1960-09-24 by C. J. van Houten, I. van Houten-Groeneveld, and T. Gehrels.

Orbit

Orbit type: Main Belt

Note: WebGL enabled browser required.

epoch2024-03-31.0
epoch JD2460400.5
perihelion date2020-01-25.57649
perihelion JD2458874.07649
argument of perihelion (°)204.82145
ascending node (°)228.83235
inclination (°)4.04917
eccentricity0.2494673
perihelion distance (AU)1.9549690
Tisserand w.r.t. Jupiter3.4
ΔV w.r.t. Earth (km/sec)8.9
semimajor axis (AU)2.6047753
mean anomaly (°)357.86853
mean daily motion (°/day)0.23444900
aphelion distance (AU)3.255
period (years)4.2
P-vector [x]0.28222925
P-vector [y]0.89155453
P-vector [z]0.35422757
Q-vector [x]-0.95787320
Q-vector [y]0.28234155
Q-vector [z]0.05255647
absolute magnitude15.63
phase slope0.15
uncertainty0
referenceMPEC 2024-E73
observations used1100
oppositions17
arc length (days)23173
first opposition used1960
last opposition used2024
residual rms (arc-secs)0.67
perturbers coarse indicatorM-v
perturbers precise indicator003Ek
first observation date used1960-09-24.0
last observation date used2024-03-05.0
computer nameMPCLINUX
JD of orbit computation2456465.481301
perihelion JD uncertainty (days)5.9932E-05
argument of perihelion uncertainty (°)8.5251E-05
ascending node uncertainty (°)8.4126E-05
inclination uncertainty (°)5.3495E-06
eccentricity uncertainty 4.2648E-08
perihelion distance uncertainty (AU)1.0881E-07
Minimum Orbit Intersection Distances (in AU)
for orbit epoch: 2460400.5, reference: E2024-E73
Mercury1.64838
Venus1.23455
Earth0.97103
Mars0.41736
Jupiter2.04137
Saturn6.77934
Uranus15.6486
Neptune27.2365

Observations

1105 total observations over interval: 1960 09 24.37569 – 2024 03 05.110947
These data are available for download (format description).

Date (UT) J2000 RA J2000 Dec Magn Location Ref
1960 09 24.37569 00 34 39.59 +09 10 01.1 19.2   675 – Palomar Mountain MPS 285050
1960 09 24.37573 00 34 39.56 +09 09 59.7 18.8   675 – Palomar Mountain MPS 3214
1960 09 24.40000 00 34 38.40 +09 09 51.5 19.2   675 – Palomar Mountain MPS 285050
1960 09 25.39445 00 33 50.99 +09 03 37.0 18.5 V 675 – Palomar Mountain MPS 285050
1960 09 25.42778 00 33 49.34 +09 03 24.2 18.3 V 675 – Palomar Mountain MPS 285050
1960 09 26.30555 00 33 07.23 +08 57 45.0 19.7   675 – Palomar Mountain MPS 285050
1960 09 26.32569 00 33 06.21 +08 57 38.0 19.8   675 – Palomar Mountain MPS 285050
1960 09 28.36805 00 31 26.05 +08 44 04.9 19.2   675 – Palomar Mountain MPS 285050
1960 09 28.38750 00 31 25.06 +08 43 56.7 19.5   675 – Palomar Mountain MPS 285050
1960 10 17.24861 00 16 18.07 +06 24 10.2 19.7   675 – Palomar Mountain MPS 285050
1960 10 17.27084 00 16 17.07 +06 24 00.2 19.5   675 – Palomar Mountain MPS 285050
1960 10 17.30417 00 16 15.58 +06 23 45.2 19.5   675 – Palomar Mountain MPS 285050
1960 10 17.32639 00 16 14.60 +06 23 35.4 19.7   675 – Palomar Mountain MPS 285050
1960 10 22.18959 00 13 04.33 +05 48 15.1 19.3   675 – Palomar Mountain MPS 285050
1960 10 22.20070 00 13 03.89 +05 48 10.6 19.4   675 – Palomar Mountain MPS 285050
1960 10 22.22292 00 13 03.05 +05 48 01.2 19.2   675 – Palomar Mountain MPS 285050
1960 10 24.33403 00 11 50.22 +05 33 24.7 18.7 V 675 – Palomar Mountain MPS 285050
1960 10 24.35834 00 11 49.36 +05 33 15.0 18.8 V 675 – Palomar Mountain MPS 285050
1960 10 26.30417 00 10 48.74 +05 20 18.0 19.2   675 – Palomar Mountain MPS 285050
1960 10 26.32570 00 10 48.01 +05 20 10.1 19.4   675 – Palomar Mountain MPS 285050
1996 04 17.23681 14 43 07.60 -16 59 53.2 20.0   809 – European Southern Observatory, La Silla MPS 6444
1996 04 17.25000 14 43 06.85 -16 59 47.7   809 – European Southern Observatory, La Silla MPS 6444
1996 04 17.26319 14 43 06.12 -16 59 42.7   809 – European Southern Observatory, La Silla MPS 6444
1998 10 10.31844 03 18 14.90 +19 57 18.7 18.4 R 699 – Lowell Observatory-LONEOS MPS 57927
1998 10 10.33830 03 18 14.54 +19 57 16.8   699 – Lowell Observatory-LONEOS MPS 57927
1998 10 10.35815 03 18 14.35 +19 57 12.7   699 – Lowell Observatory-LONEOS MPS 57927
1998 10 18.36337 03 15 37.72 +19 28 18.3 17.6 R 699 – Lowell Observatory-LONEOS MPS 3156
1998 10 18.38750 03 15 36.98 +19 28 12.3   699 – Lowell Observatory-LONEOS MPS 3156
1998 10 18.41236 03 15 36.21 +19 28 06.6   699 – Lowell Observatory-LONEOS MPS 3156
1998 11 10.25800 02 59 31.20 +17 14 31.1 17.7   704 – Lincoln Laboratory ETS, New Mexico MPS 3156
1998 11 10.27714 02 59 30.16 +17 14 22.8 17.7   704 – Lincoln Laboratory ETS, New Mexico MPS 3156
1998 11 10.29621 02 59 29.17 +17 14 15.4 18.3   704 – Lincoln Laboratory ETS, New Mexico MPS 3156
1998 11 10.31526 02 59 28.19 +17 14 06.7 18.2   704 – Lincoln Laboratory ETS, New Mexico MPS 3156
1998 11 10.33437 02 59 27.09 +17 13 58.9 18.2   704 – Lincoln Laboratory ETS, New Mexico MPS 3156
1998 11 11.18690 02 58 44.59 +17 08 07.9   704 – Lincoln Laboratory ETS, New Mexico MPS 3156
1998 11 11.20878 02 58 43.43 +17 07 58.6 18.3   704 – Lincoln Laboratory ETS, New Mexico MPS 3156
1998 11 11.23081 02 58 42.17 +17 07 50.3 18.4   704 – Lincoln Laboratory ETS, New Mexico MPS 3156
1998 11 11.25259 02 58 41.05 +17 07 41.4 18.0   704 – Lincoln Laboratory ETS, New Mexico MPS 3156
1998 11 11.27445 02 58 39.92 +17 07 31.8 18.0   704 – Lincoln Laboratory ETS, New Mexico MPS 3156
1998 11 15.22607 02 55 22.45 +16 40 16.9 18.1 V 691 – Steward Observatory, Kitt Peak-Spacewatch MPS 81247
1998 11 15.24782 02 55 21.30 +16 40 08.0 18.2 V 691 – Steward Observatory, Kitt Peak-Spacewatch MPS 81247
1998 11 15.26971 02 55 20.15 +16 39 59.1 18.2 V 691 – Steward Observatory, Kitt Peak-Spacewatch MPS 81247
1998 11 21.20800 02 50 39.32 +15 59 49.1 18.3 V 691 – Steward Observatory, Kitt Peak-Spacewatch MPS 81247
1998 11 21.23907 02 50 37.83 +15 59 36.9 18.3 V 691 – Steward Observatory, Kitt Peak-Spacewatch MPS 81247
1998 11 21.27989 02 50 35.87 +15 59 21.1 18.2 V 691 – Steward Observatory, Kitt Peak-Spacewatch MPS 81247
1998 12 08.16373 02 41 30.17 +14 26 31.9 17.8 R 699 – Lowell Observatory-LONEOS MPS 3485
1998 12 08.19326 02 41 29.51 +14 26 25.1   699 – Lowell Observatory-LONEOS MPS 3485
1998 12 08.21875 02 41 29.01 +14 26 18.9   699 – Lowell Observatory-LONEOS MPS 3485
1999 01 07.15304 02 48 23.22 +13 55 00.1 18.4 R 699 – Lowell Observatory-LONEOS MPS 57927
1999 01 07.16833 02 48 23.85 +13 55 01.9   699 – Lowell Observatory-LONEOS MPS 57927
1999 01 07.18362 02 48 24.56 +13 55 03.9   699 – Lowell Observatory-LONEOS MPS 57927
2002 09 06.26854 00 34 38.21 +09 21 48.2 18.8   704 – Lincoln Laboratory ETS, New Mexico MPS 61834
2002 09 06.28245 00 34 37.72 +09 21 45.6 18.9   704 – Lincoln Laboratory ETS, New Mexico MPS 61834
2002 09 06.29630 00 34 37.29 +09 21 42.8 19.5   704 – Lincoln Laboratory ETS, New Mexico MPS 61834
2002 09 06.31014 00 34 36.82 +09 21 40.4 19.4   704 – Lincoln Laboratory ETS, New Mexico MPS 61834
2002 09 06.32417 00 34 36.36 +09 21 38.1 19.3   704 – Lincoln Laboratory ETS, New Mexico MPS 61834
2002 09 14.44592 00 29 46.17 +08 49 39.7 17.9   644 – Palomar Mountain/NEAT MPS 61834
2002 09 14.45755 00 29 45.67 +08 49 36.4 17.9   644 – Palomar Mountain/NEAT MPS 61834
2002 09 14.46806 00 29 45.22 +08 49 33.2 18.1   644 – Palomar Mountain/NEAT MPS 61834
2002 09 30.80478 00 16 55.93 +07 09 44.8 17.5 R 185 – Observatoire Astronomique Jurassien-Vicques MPS 64275
2002 09 30.81316 00 16 55.50 +07 09 41.0 17.4 R 185 – Observatoire Astronomique Jurassien-Vicques MPS 64275
2002 09 30.82275 00 16 55.01 +07 09 36.9 17.3 R 185 – Observatoire Astronomique Jurassien-Vicques MPS 64275
2002 10 01.86168 00 16 02.38 +07 02 07.1 17.6 R 185 – Observatoire Astronomique Jurassien-Vicques MPS 64275
2002 10 01.87571 00 16 01.68 +07 02 01.2 17.2 R 185 – Observatoire Astronomique Jurassien-Vicques MPS 64275
2002 10 04.25640 00 14 01.44 +06 44 34.7 17.7   704 – Lincoln Laboratory ETS, New Mexico MPS 64275
2002 10 04.27207 00 14 00.62 +06 44 27.8 17.9   704 – Lincoln Laboratory ETS, New Mexico MPS 64275
2002 10 04.28773 00 13 59.79 +06 44 20.7 18.0   704 – Lincoln Laboratory ETS, New Mexico MPS 64276
2002 10 04.30340 00 13 58.97 +06 44 14.0 17.8   704 – Lincoln Laboratory ETS, New Mexico MPS 64276
2002 10 04.31914 00 13 58.15 +06 44 07.0 18.2   704 – Lincoln Laboratory ETS, New Mexico MPS 64276
2002 10 07.17094 00 11 36.75 +06 22 47.6 17.9 R 699 – Lowell Observatory-LONEOS MPS 64276
2002 10 07.19269 00 11 35.61 +06 22 37.5   699 – Lowell Observatory-LONEOS MPS 64276
2002 10 07.21442 00 11 34.49 +06 22 28.1   699 – Lowell Observatory-LONEOS MPS 64276
2002 10 07.23605 00 11 33.41 +06 22 18.2   699 – Lowell Observatory-LONEOS MPS 64276
2002 10 12.24938 00 07 35.42 +05 44 32.2 18.3   704 – Lincoln Laboratory ETS, New Mexico MPS 64276
2002 10 12.26587 00 07 34.60 +05 44 25.2 18.7   704 – Lincoln Laboratory ETS, New Mexico MPS 64276
2002 10 12.28245 00 07 33.85 +05 44 17.7 18.5   704 – Lincoln Laboratory ETS, New Mexico MPS 64276
2002 10 12.29917 00 07 33.05 +05 44 10.3 18.7   704 – Lincoln Laboratory ETS, New Mexico MPS 64276
2002 10 12.31565 00 07 32.25 +05 44 03.3 18.4   704 – Lincoln Laboratory ETS, New Mexico MPS 64276
2002 10 31.15093 23 57 00.62 +03 38 36.7 19.5 R 683 – Goodricke-Pigott Observatory, Tucson MPS 66541
2002 10 31.16360 23 57 00.26 +03 38 32.8 19.2 R 683 – Goodricke-Pigott Observatory, Tucson MPS 66541
2002 10 31.16858 23 57 00.21 +03 38 30.5 19.0   704 – Lincoln Laboratory ETS, New Mexico MPS 66541
2002 10 31.16940 23 57 00.14 +03 38 31.8 18.2   704 – Lincoln Laboratory ETS, New Mexico MPS 66541
2002 10 31.17551 23 57 00.02 +03 38 28.9 19.7 R 683 – Goodricke-Pigott Observatory, Tucson MPS 66541
2002 10 31.18577 23 56 59.82 +03 38 24.9 19.0   704 – Lincoln Laboratory ETS, New Mexico MPS 66541
2002 10 31.18660 23 56 59.81 +03 38 26.1 19.0   704 – Lincoln Laboratory ETS, New Mexico MPS 66541
2002 10 31.20306 23 56 59.47 +03 38 20.1 19.1   704 – Lincoln Laboratory ETS, New Mexico MPS 66541
2002 10 31.20381 23 56 59.41 +03 38 20.8 18.9   704 – Lincoln Laboratory ETS, New Mexico MPS 66541
